Showing default

OPS 1264 (DMSP 4A F4), 2980

Orbit data source: Space-Track

OPS 1264 (DMSP 4A F4), 2980 is a payload satellite owned by SAMSO (US) in SSO that was launched on Wed, 11 Oct 1967 UTC via a THOR BURNER 2 launch vehicle from the Air Force Western Test Range (AFWTR). Payload-class satellites include a variety of spacecraft equipped with specific instruments for various scientific and technological missions. These include communications satellites like Starlink; space stations such as the ISS; scientific satellites like the Hubble; Earth observation satellites from companies like Planet Labs, Umbra, and HawkEye 360; GPS; miniature CubeSats for education and research; and military/defense satellites.

Loading next visibility...
Identifier
2980, 1967-096A
Orbit
SSO
Country
Flag of USUS
Related business
Manufacturer
RCA/East Windsor
Mission
Non-operational spacecraft
Bus & Motor
DMSP BLOCK 4A, Unknown motor
Mass
79 kg wet, 79 kg dry
Launch date (UTC)
1967-10-11 (58 years ago)
Launch vehicle
THOR BURNER 2
Launch site
Air Force Western Test Range (AFWTR)
Object type
Payload
Rocket body
Debris
Shape & HBR
Unknown
Radar Cross Section
Medium (>0.1 m² and <1 m²)

Expand to show TLE details & history
Last TLE update: 8 hours ago

TLE from 8 hours ago
0 OPS 1264 (DMSP 4A F4)
1 02980U 67096A   26094.18038652  .00000784  00000-0  15600-3 0  9995
2 02980  99.1855 161.7357 0092775 337.5245  22.1901 14.62920624 76304
Epoch: 2026-04-04T04:19Z
TLE epoch observation values (Epoch: 2026-04-04T04:19:45.395Z)
Latitude
-0.00002°
Longitude
-95.7073°
Altitude
626.128 km
Speed
7.578 km/s
True Right ascension
10h 46m 56s
True Declination
0° 00' 00"
Sunlit
Object was in full shadow at epoch
Visualization orbit readout
Latitude
Unknown
Longitude
Unknown
Altitude
Unknown
Speed
Unknown
Apparent Right ascension
Unknown
Apparent Declination
Unknown
Sunlit
N/A
Visualization observer readout
Local Sidereal Time
18:39:57
Azimuth
Unknown
Elevation
Unknown
Doppler factor
Unknown
Orbital elements
Apogee altitude
746.374 km
Perigee altitude
615.394 km
Semi-major axis
7,059.021 km
Eccentricity
0.00928
Inclination
99.1855°
RAAN
161.7357°
Arg. of periapsis
337.5245°
True anomaly
22.59597°
Mean anomaly
22.1901°
Eccentric anomaly
22.3926°
Mean motion
3.65954 °/min
Orbital period
98.37 mins
BSTAR
0.000156
Loading maneuver chart data...
Computing Atmospheric mass density...
Loading historical data...
Loading historical data...
Loading historical data...
Loading historical data...
Loading historical data...
Loading historical data...
Loading historical data...
Other satellites on launch #96 in the year 1967 (1967-10-11 UTC)

Documentation

Showing up to 5 results
|